Theta_e
327 325 322 324 318 318 316 318 309 305 302 301 301 300 300 300 300 300 300 300 300 299 299 299 298 298 298 298 298 298 298 302 303 299 299 295 297 297 297 296 295 295 294
326 323 323 325 320 320 317 318 309 305 301 301 300 300 300 300 300 300 300 299 299 299 299 298 298 298 298 298 298 298 297 297 302 301 299 298 296 295 296 297 295 294 294
325 323 323 326 321 321 319 318 310 306 301 301 300 300 300 300 299 299 299 299 299 298 298 298 298 298 297 297 297 297 297 296 297 300 299 297 297 295 297 297 296 295 294
325 323 322 326 323 321 320 318 310 309 302 300 300 300 299 299 299 299 299 299 298 298 298 298 297 297 297 297 297 297 296 297 296 299 299 299 298 295 296 297 298 296 295
325 324 322 324 321 320 320 318 310 311 303 301 300 299 299 299 299 299 299 298 298 298 298 297 297 298 297 297 297 297 296 297 299 299 299 299 298 298 297 296 295 296 295
325 324 322 321 320 321 320 317 311 311 305 301 300 300 299 299 299 299 299 298 298 297 297 297 297 297 297 296 296 296 296 296 298 299 298 299 298 297 296 296 294 295 295
326 324 323 321 320 320 319 315 311 311 309 302 300 300 299 300 299 298 298 298 298 297 297 297 297 297 296 296 296 296 295 295 293 293 298 297 297 296 295 294 294 293 294
326 323 322 321 321 320 320 316 313 314 312 304 300 300 299 299 298 298 297 298 298 298 298 297 296 297 296 296 295 295 295 295 294 293 292 292 293 293 294 294 293 293 293
326 324 322 321 321 320 321 318 316 316 313 306 301 300 300 299 298 297 297 297 299 299 298 297 296 296 296 296 295 295 295 295 294 293 292 292 292 293 293 293 293 292 293
325 324 323 321 320 320 319 319 317 316 314 307 304 301 300 300 298 297 297 298 301 301 299 298 296 296 296 295 295 294 294 295 295 294 293 292 292 293 293 293 293 292 291
324 324 323 321 320 319 318 317 317 316 311 307 305 304 302 301 298 297 297 298 301 302 301 299 297 296 296 295 295 294 295 295 294 294 293 292 291 293 293 293 293 292 292
323 324 323 321 320 318 318 316 316 314 309 307 305 305 303 301 298 297 297 296 301 301 301 300 298 296 295 295 295 295 294 293 294 293 294 292 291 291 292 292 293 292 292
321 321 320 319 318 316 316 317 315 311 309 308 306 305 304 304 301 298 296 296 297 299 301 300 298 296 295 295 295 295 294 293 293 293 294 293 292 290 290 292 292 292 291
320 319 318 317 316 316 315 317 316 314 310 308 307 306 305 304 303 300 297 296 295 296 300 299 298 295 294 294 295 295 295 294 293 293 293 293 293 292 290 290 291 292 292
321 320 320 318 318 315 315 315 316 315 314 311 309 308 306 305 304 303 299 297 296 295 295 297 296 295 293 293 294 294 295 294 294 293 293 293 293 293 291 291 291 291 292
321 320 319 318 317 316 315 315 315 314 314 313 311 311 309 308 306 305 303 299 297 296 295 295 296 296 295 295 294 294 294 294 294 294 293 293 293 293 292 291 290 290 291
319 319 319 318 317 316 316 316 315 314 313 314 312 311 310 311 309 307 305 301 298 297 296 296 296 296 296 296 296 295 295 294 294 294 293 293 293 292 293 292 291 290 290
317 318 318 317 316 315 315 316 315 314 313 315 315 311 310 310 309 307 305 302 299 297 297 297 297 297 297 297 297 297 296 296 295 294 293 293 293 293 292 292 292 291 290
314 315 315 315 314 313 315 315 315 314 314 314 315 314 313 310 309 307 306 303 301 299 297 297 297 297 297 298 298 297 297 297 297 296 295 293 293 293 293 292 292 292 291
312 312 312 313 312 313 313 314 314 313 313 313 313 316 315 312 310 309 307 305 302 300 299 298 297 297 298 298 299 298 298 297 297 298 298 296 295 293 293 292 292 292 292
310 309 309 310 311 311 312 312 313 313 313 314 314 315 315 314 313 312 310 308 306 304 301 299 298 297 297 298 298 298 298 298 298 298 299 298 298 296 294 293 292 292 292
305 308 309 309 308 308 309 310 312 311 312 312 313 315 314 313 311 311 310 309 308 306 304 301 299 298 297 297 297 297 298 298 298 298 298 299 299 298 296 295 292 292 292
302 304 306 307 307 308 307 307 308 310 310 310 310 310 311 311 311 310 310 309 308 307 305 303 300 298 297 297 297 298 298 298 298 298 299 299 299 299 298 297 295 293 292
298 299 300 302 303 304 305 305 305 305 306 307 308 307 308 308 308 309 307 309 308 306 304 303 301 301 300 299 299 299 299 300 300 299 299 299 299 299 299 299 298 297 294
297 297 297 297 298 299 301 302 302 303 303 304 305 305 305 306 306 306 305 306 306 305 304 304 304 303 303 303 303 303 302 302 301 301 300 300 300 299 299 299 299 299 298
293 294 295 297 297 297 297 297 298 299 301 301 302 303 303 304 303 303 304 303 303 304 304 304 304 303 303 303 303 303 303 303 302 302 301 300 300 300 300 300 300 299 299
Wind_Speed
29 28 27 28 26 24 21 20 19 18 17 18 17 17 16 16 15 14 14 13 13 13 12 11 9 7 6 5 4 4 3 4 3 3 2 3 5 2 3 3 5 10 15
30 30 30 30 28 25 23 22 21 19 19 19 18 18 18 17 16 15 14 15 14 13 12 11 10 8 6 5 5 4 3 4 4 5 3 2 1 5 4 2 2 1 7
30 29 31 31 30 27 25 24 23 21 21 20 20 19 19 18 18 17 17 16 15 14 13 12 10 8 7 6 4 3 3 2 4 4 2 1 3 3 1 1 1 1 4
32 29 33 34 31 28 27 26 25 23 22 22 21 21 20 20 19 18 18 17 16 15 14 13 11 10 8 6 5 3 2 2 3 3 2 1 1 4 1 1 3 2 2
34 31 34 33 30 29 28 27 26 24 23 22 22 22 22 21 20 20 19 18 17 16 15 13 13 10 8 6 5 4 3 3 3 3 1 1 2 2 2 3 1 2 7
38 34 32 32 31 31 30 29 27 25 24 24 24 24 24 22 23 22 20 19 17 16 16 15 12 11 9 7 5 4 2 4 4 3 3 3 3 3 1 4 1 1 5
38 32 31 32 33 33 30 28 28 27 26 26 25 24 24 23 23 22 20 19 18 17 16 15 13 12 10 9 7 5 4 3 3 3 3 4 3 5 5 3 2 1 1
39 35 34 33 34 34 31 29 29 29 28 28 27 25 25 26 23 23 22 20 18 17 16 15 14 12 12 10 8 7 6 5 4 3 3 5 5 5 4 4 3 3 5
42 37 37 36 34 36 36 34 32 31 30 29 27 27 26 27 25 25 25 21 18 18 18 17 16 14 12 11 9 8 7 6 4 4 5 6 5 6 5 4 4 3 4
42 37 35 32 34 34 35 34 33 31 29 27 26 27 27 27 26 27 27 22 19 18 18 18 18 16 14 13 11 9 9 8 6 5 5 6 5 4 4 5 5 5 5
32 32 33 31 31 33 33 33 34 30 27 28 25 26 27 27 27 29 29 24 19 19 17 18 20 19 15 15 14 12 12 10 8 8 7 7 7 6 8 7 7 7 7
26 29 31 29 30 33 34 34 31 31 30 29 27 26 25 27 29 29 30 29 21 19 18 17 19 18 18 17 17 16 13 13 11 11 10 9 9 9 9 9 8 10 9
26 27 27 27 29 30 35 36 34 30 30 29 29 28 28 26 29 29 30 30 29 23 17 18 21 18 19 20 21 18 17 16 15 14 13 12 11 10 11 10 10 10 9
22 25 27 28 30 31 34 36 35 36 35 33 30 30 29 28 30 29 34 33 33 30 24 24 25 21 21 22 23 22 21 20 18 16 15 14 13 12 11 13 12 11 11
19 21 24 29 32 33 32 35 37 36 36 36 33 32 33 33 32 32 31 36 38 36 32 30 29 27 27 27 27 26 24 24 23 20 18 17 16 15 13 12 14 12 13
14 17 23 28 28 31 30 29 30 28 32 33 30 29 27 26 27 25 22 29 35 35 36 36 33 32 32 30 30 28 26 26 25 23 22 21 20 18 16 15 17 16 15
8 16 23 27 27 31 31 31 35 33 30 30 33 31 27 25 21 20 17 19 28 34 37 37 38 35 33 32 32 30 29 27 25 25 25 23 22 21 20 19 18 19 19
11 16 16 19 25 28 31 33 29 33 39 36 34 35 33 31 25 19 17 19 29 34 37 39 40 39 36 34 33 32 30 30 30 28 28 26 25 24 23 23 21 22 21
5 8 15 14 19 19 25 26 29 25 28 36 36 36 35 34 29 26 24 28 33 37 40 42 41 39 39 37 35 32 32 32 31 29 29 29 28 27 26 25 25 24 24
7 7 10 12 14 18 21 23 24 26 24 24 31 33 36 38 37 37 36 35 35 38 40 42 43 42 39 38 37 35 31 32 32 32 32 31 32 30 29 29 29 28 28
8 6 6 12 9 11 15 21 23 26 28 28 27 27 29 31 36 39 40 41 40 40 39 40 42 44 43 41 40 40 36 33 33 33 33 34 34 34 32 32 33 31 30
6 4 6 7 13 11 12 13 17 22 23 26 27 29 28 27 28 32 39 40 40 38 39 39 39 38 38 40 41 41 40 38 35 35 34 35 35 33 33 33 34 35 34
17 10 7 9 10 14 16 16 16 16 19 21 22 27 27 27 27 30 31 32 35 35 35 38 36 34 32 32 34 36 37 36 34 31 34 36 36 36 34 34 35 36 36
20 19 15 9 10 11 13 12 12 14 16 19 20 24 25 26 26 27 31 28 31 29 30 30 30 29 28 29 29 31 33 33 32 32 32 34 35 35 36 36 36 38 38
17 18 18 17 14 11 7 9 12 15 16 17 20 22 23 22 21 22 26 29 28 27 28 28 29 28 27 27 28 28 29 29 29 30 32 33 34 35 37 38 37 37 38
10 12 16 17 16 14 12 9 5 5 8 11 15 19 21 23 22 22 24 27 30 31 32 32 32 31 31 32 31 31 32 32 32 32 33 34 35 37 38 40 39 40 41
Wind_Direction
183 183 186 185 188 194 191 196 198 195 191 187 189 189 187 184 184 183 181 179 180 181 177 178 180 178 169 160 150 141 135 101 150 152 163 6 356 57 359 32 10 347 341
184 186 190 191 194 196 194 200 200 196 190 190 189 188 187 187 186 187 183 184 183 180 179 178 177 178 174 162 159 155 143 140 137 148 164 330 336 343 40 56 81 143 306
183 186 191 195 198 197 198 201 200 199 193 191 191 191 191 191 190 188 192 188 185 184 182 181 178 175 176 171 166 152 133 126 136 165 190 191 296 6 350 348 35 315 338
184 186 195 199 199 198 200 202 199 200 196 196 194 194 196 194 193 193 193 192 189 187 187 184 180 178 184 181 178 162 150 121 119 142 144 228 212 325 91 179 259 300 270
185 190 198 197 197 197 200 203 199 200 197 198 197 198 199 197 196 195 197 196 194 193 192 191 193 193 191 195 183 177 170 148 157 175 206 201 272 282 225 277 258 223 290
191 193 193 195 195 201 202 201 200 199 198 198 199 201 200 197 203 202 200 197 198 198 196 202 194 195 194 196 195 201 194 180 184 184 212 219 257 255 259 260 340 155 256
194 193 195 194 196 202 201 198 198 200 204 203 202 202 203 199 207 203 201 199 199 201 202 207 201 204 203 204 204 208 203 208 224 209 194 220 226 243 263 254 270 295 330
195 194 195 195 199 203 202 200 201 205 209 207 205 204 204 208 207 202 200 200 199 204 206 208 205 207 211 209 210 213 210 215 224 239 260 274 257 267 250 270 283 269 250
198 197 199 201 197 204 206 205 205 208 208 208 208 207 207 212 207 205 202 201 199 204 208 210 212 215 214 216 218 218 224 237 256 279 297 305 296 279 267 272 274 276 213
197 197 197 198 200 203 203 203 206 208 210 207 206 209 207 215 210 208 206 201 200 203 207 214 218 221 216 217 223 225 229 244 267 264 272 285 295 273 273 272 272 269 264
198 197 199 200 202 202 201 205 207 204 203 204 202 208 208 212 213 211 210 201 202 201 206 212 223 224 222 222 225 226 233 245 254 268 279 290 295 286 292 280 279 284 277
197 196 199 199 196 197 201 204 204 202 201 202 199 204 206 211 220 215 213 209 202 206 206 212 224 220 222 226 230 238 242 244 252 257 263 274 279 280 279 277 274 268 278
190 193 195 195 195 199 200 206 203 198 199 201 199 202 206 209 222 216 216 213 212 203 211 215 225 222 223 228 234 235 240 245 251 253 259 266 272 277 283 280 273 267 280
206 199 196 196 197 200 206 209 208 208 202 203 200 205 205 209 216 219 213 212 215 214 207 216 228 229 229 236 238 239 241 245 250 252 256 263 268 272 269 279 276 270 264
205 218 219 219 214 208 208 209 212 219 217 210 211 213 218 220 227 235 222 216 216 216 216 225 229 229 230 234 240 241 242 245 248 250 251 257 262 266 270 270 277 267 259
202 217 217 212 212 207 209 209 212 216 220 218 222 228 229 233 232 244 242 229 228 225 220 226 234 233 236 239 243 247 247 247 248 250 250 253 259 262 263 263 268 276 264
224 234 227 218 210 208 209 209 214 209 215 220 218 220 224 239 241 243 242 237 231 225 227 232 238 240 239 242 245 248 250 252 251 249 251 253 256 260 262 263 267 272 277
201 239 220 225 221 217 215 213 218 221 217 220 219 220 222 232 234 233 229 225 223 225 233 235 237 242 244 244 246 248 249 251 251 251 251 254 256 259 261 263 264 268 274
203 242 228 228 224 230 217 219 219 224 231 227 226 223 224 227 231 230 227 228 228 228 230 234 237 239 246 249 250 250 250 251 255 255 256 255 257 259 263 265 266 269 271
200 239 212 224 230 226 223 217 220 219 222 224 229 227 227 224 223 224 225 227 231 235 237 237 241 240 241 247 251 255 254 254 254 255 256 256 259 260 262 263 265 265 268
234 261 279 225 215 237 233 224 227 230 228 231 234 234 235 235 234 234 234 234 236 239 244 245 243 245 246 248 252 257 259 259 259 259 259 259 260 260 262 263 264 265 265
347 271 261 258 256 251 240 240 233 237 231 234 230 235 239 237 235 236 239 241 243 245 249 252 254 255 253 252 253 258 262 263 261 261 260 260 261 261 260 261 260 263 264
8 348 286 260 252 250 257 244 238 231 235 232 230 231 236 236 232 236 241 243 247 247 250 252 256 258 259 258 257 259 261 263 265 263 261 261 261 263 263 262 262 262 263
25 20 10 331 292 268 258 256 254 259 254 254 254 248 244 244 243 243 244 248 248 246 248 251 255 257 258 258 259 261 263 265 265 264 260 260 260 261 263 262 261 262 264
24 25 26 24 15 0 324 276 262 253 251 248 246 241 243 250 249 248 245 248 249 250 250 252 255 256 259 260 260 262 264 265 265 265 265 263 261 260 262 262 263 262 263
4 18 18 20 22 21 19 13 350 302 265 257 253 247 244 241 238 241 243 241 244 245 245 247 248 250 252 254 256 257 260 260 259 259 259 261 261 260 259 260 261 261 261